Regional Weather Roundup
Issued by NWS

Home | Current Version | Previous Version | Text Only | Print | Product List | Glossary Off
Versions: 1 2 3 4 5 6 7 8 9 10 11 12 13 14 15 16 17 18 19 20 21 22 23 24 25 26 27 28 29 30 31 32 33 34 35 36 37 38 39 40 41 42 43 44 45 46 47 48 49 50

000
ASUS43 KMPX 220901
RWRMN
WEATHER ROUNDUP FOR MINNESOTA
NATIONAL WEATHER SERVICE TWIN CITIES/CHANHASSEN MN
300 AM CST MON JAN 22 2018


NOTE: "FAIR" INDICATES FEW OR NO CLOUDS BELOW 12,000 FEET WITH NO
SIGNIFICANT WEATHER AND/OR OBSTRUCTIONS TO VISIBILITY. N/A MEANS
CURRENT SKY AND/OR WEATHER CONDITIONS ARE NOT AVAILABLE.

MNZ060>063-068>070-221000-
   Twin Cities Metro

CITY           SKY/WX    TMP DP  RH WIND       PRES   REMARKS
TWIN CITIES    CLOUDY    33  30  88 NE18      29.86F WCI  22
ST PAUL        CLOUDY    33  29  85 NE18G25   29.88F WCI  22
CRYSTAL        CLOUDY    32  26  78 NE13      29.88F WCI  22
BLAINE         MOCLDY    34  30  86 NE10G17   29.89F WCI  26
LAKEVILLE      MOCLDY    34  30  86 NE18G26   29.82F WCI  23
EDEN PRAIRIE   MOCLDY    33  28  81 NE16G25   29.83F WCI  23
SOUTH ST PAUL  CLOUDY    34  29  82 NE13      29.85F WCI  25
LAKE ELMO      FAIR      34  30  86 N12G17    29.89F WCI  25
$$
MNZ001>005-007-008-013>017-022>024-027-028-221000-
   Northwest Minnesota

CITY           SKY/WX    TMP DP  RH WIND       PRES   REMARKS
BEMIDJI        CLOUDY    25  24  97 NE6       30.02R WCI  18
HALLOCK        CLOUDY    21  19  93 CALM      30.11S
ROSEAU         CLOUDY    23  19  86 N3        30.09F
WARROAD        FOG       25  19  80 N3        30.09F VSB 1
CROOKSTON      CLOUDY    25  21  86 NE8       30.08S WCI  16
FOSSTON        CLOUDY    23  21  93 NE6       30.03S WCI  16
DETROIT LAKES  CLOUDY    27  27 100 NE12      30.00S WCI  16
MOORHEAD       CLOUDY    25  21  86 N10       30.04R WCI  15
PARK RAPIDS    CLOUDY    25  22  88 E12       30.00R WCI  14
MAHNOMEN       CLOUDY    24  23  96 NE8       30.01S WCI  15
$$
MNZ006-009>011-018-025>026-221000-
   North Central Minnesota

CITY           SKY/WX    TMP DP  RH WIND       PRES   REMARKS
BAUDETTE       CLOUDY    24  22  91 N7        30.07R WCI  16
FLAG ISLAND    CLOUDY    19  18  93 NE8       30.10S WCI   9
INTL FALLS     CLOUDY    22  19  89 E7        30.08R WCI  13
WASKISH        CLOUDY    27  25  93 CALM      30.05S
BIG FORK       CLOUDY    27  25  93 E5        30.04R FOG     WCI  21
LONGVILLE      CLOUDY    27  25  93 NE6       30.02R WCI  20
GRAND RAPIDS   CLOUDY    27  25  92 VRB6      30.06R WCI  20
CRANE LAKE     CLOUDY    19  18  93 NE5       30.10S WCI  13
ORR            CLOUDY    21  19  93 CALM      30.03R
COOK           LGT SNOW  25  25 100 NE3       30.06R
WALKER         CLOUDY    25  24  96 NE5       30.02R WCI  19
$$
MNZ012-019>021-037-221000-
   Northeast Minnesota

CITY           SKY/WX    TMP DP  RH WIND       PRES   REMARKS
DULUTH         LGT SNOW  27  25  92 E17G25    30.02R VSB 3/4 WCI  14
HIBBING        CLOUDY    25  24  96 E7        30.04R WCI  17
EVELETH        CLOUDY    25  22  89 CALM      30.06R
DULUTH HARBOR  MIX PCPN  30  28  93 NE25      30.06F WCI  16
TWO HARBORS    CLOUDY    28  23  80 NE10G22   30.05S HAZE    WCI  19
GRAND MARAIS     N/A     23  17  78 NE7       30.15  WCI  15
G MARAIS ARPRT CLOUDY    16  10  79 NE6       30.06R WCI   7
$$
MNZ029>031-032-039>041-046>048-054>057-064-221000-
   West Central Minnesota

CITY           SKY/WX    TMP DP  RH WIND       PRES   REMARKS
FERGUS FALLS   CLOUDY    25  25 100 NE7       29.99R WCI  17
WHEATON        CLOUDY    27  23  86 N9        30.01S WCI  17
MORRIS         CLOUDY    27  25  93 N14       29.95S FOG     WCI  15
ALEXANDRIA     CLOUDY    25  24  96 NE12      29.95S FOG     WCI  14
ELBOW LAKE     CLOUDY    24  24  99 E12       29.97F FOG     WCI  13
WADENA         CLOUDY    25  25 100 NE10      29.99S FOG     WCI  15
GLENWOOD       CLOUDY    25  25 100 NE17      29.94S FOG     WCI  11
APPLETON       CLOUDY    27  25  93 N13       29.95S WCI  16
BENSON         CLOUDY    27  25  93 NE10G16   29.94F FOG     WCI  17
ORTONVILLE     CLOUDY    27  23  86 N15       29.95F WCI  15
MADISON        CLOUDY    28  28 100 N13       29.95R WCI  18
WILLMAR        FAIR      27  25  93 NE21G26   29.91F WCI  13
$$
MNZ033>034-036-042>043-049>051-058-059-221000-
   Central Minnesota

CITY           SKY/WX    TMP DP  RH WIND       PRES   REMARKS
ST CLOUD       CLOUDY    29  28  96 NE10      29.93F WCI  20
SAUK CENTRE      N/A     26  24  94 N10       29.94F WCI  16
PAYNESVILLE    CLOUDY    27  27  99 NE15G21   29.91F FOG     WCI  16
AITKIN         CLOUDY    28  25  86 NE10      29.99S WCI  19
PINE RIVER     CLOUDY    25  23  93 NE7       30.04F WCI  17
BRAINERD       CLOUDY    29  25  85 NE12      29.99S WCI  19
STAPLES        CLOUDY    25  25 100 N9        29.98F FOG     WCI  15
LONG PRAIRIE   CLOUDY    27  25  93 N10       29.95F FOG     WCI  17
LITTLE FALLS   CLOUDY    28  27  93 CALM      29.95F
LITCHFIELD     CLOUDY    30  28  93 N17       29.89F WCI  18
BUFFALO        CLOUDY    31  28  88 N12       29.90F WCI  21
MAPLE LAKE     CLOUDY    31  30  94 MISG      29.91F
HUTCHINSON     FAIR      32  30  92 N15G22    29.86F WCI  21
$$
MNZ037-044-045-052-053-221000-
   East Central Minnesota

CITY           SKY/WX    TMP DP  RH WIND       PRES   REMARKS
PRINCETON      CLOUDY    30  28  93 NE9       29.93F WCI  22
MORA           CLOUDY    32  28  86 NE8       29.98S WCI  25
CAMBRIDGE      CLOUDY    34  28  80 N8G17     29.93F WCI  27
RUSH CITY      CLOUDY    31  27  86 NE14G20   29.95F WCI  21
MOOSE LAKE     CLOUDY    30  27  86 NE8G18    29.99S WCI  23
HINCKLEY       CLOUDY    32  28  86 NE10G18   29.98R WCI  24
CLOQUET        LGT SNOW  27  25  93 E16G23    30.01F WCI  14
MCGREGOR       CLOUDY    30  27  86 NE13      30.00F WCI  20
$$
MNZ071>073-080-081-089-090-097-098-221000-
   Southwest Minnesota

CITY           SKY/WX    TMP DP  RH WIND       PRES   REMARKS
MONTEVIDEO     CLOUDY    27  25  93 NE13G18   29.92R WCI  16
GRANITE FALLS  CLOUDY    32  28  86 N14       29.91S WCI  22
CANBY          CLOUDY    28  27  96 N16       29.92S FOG     WCI  16
MARSHALL       FLURRIES  28  26  92 N16       29.87F WCI  16
REDWOOD FALLS  CLOUDY    32  28  85 N10       29.85R WCI  24
OLIVIA         CLOUDY    32  28  86 N14G21    29.86S WCI  22
PIPESTONE        N/A     27  25  93 NE21G28   29.80F WCI  13
WINDOM         CLOUDY    34  18  51 N17       29.79F WCI  23
WORTHINGTON    CLOUDY    31  28  89 N28G35    29.74  WCI  17
JACKSON        CLOUDY    32  30  93 NE23G29   29.75F WCI  19
TRACY          FLURRIES  32  30  95 N13G18    29.85R WCI  22
SLAYTON        LGT SNOW  30  29  95 N21G26    29.81F WCI  17
$$
MNZ065>067-074>077-082>085-091>093-221000-
   South Central Minnesota

CITY           SKY/WX    TMP DP  RH WIND       PRES   REMARKS
MANKATO        CLOUDY    34  29  82 NE17      29.81R WCI  23
NEW ULM        CLOUDY    34  27  75 NE17      29.82R WCI  23
ST JAMES       CLOUDY    34  28  80 N13G18    29.82S WCI  25
FAIRMONT       LGT RAIN  34  30  85 N18       29.74F WCI  23
FARIBAULT      CLOUDY    36  30  80 N13G22    29.81R
OWATONNA       CLOUDY    37  30  75 NE14G20   29.79R
WASECA         CLOUDY    36  32  87 NE13      29.81R
ALBERT LEA     RAIN      34  34 100 NE18G26   29.71F WCI  23
$$
MNZ078>079-086>088-094>096-221000-
   Southeast Minnesota

CITY           SKY/WX    TMP DP  RH WIND       PRES   REMARKS
ROCHESTER      LGT RAIN  34  31  88 NE16      29.75S WCI  24
RED WING       MOCLDY    39  28  65 NE9G20    29.83S
STANTON        CLOUDY    36  31  83 NE18      29.79F
DODGE CENTER   CLOUDY    36  30  80 NE16      29.76S
WINONA         CLOUDY    37  32  81 E8        29.78S
PRESTON        CLOUDY    34  32  92 NE15G22   29.73F FOG     WCI  24
$$
ABBREVIATIONS USED IN REMARKS
   TC - TEMPERATURES IN CELSIUS
  WCI - WIND CHILL INDEX
   HX - HEAT INDEX
  VSB - VISIBILITY
$$




USA.gov is the U.S. government's official web portal to all federal, state and local government web resources and services.